Location: Freistadt
(48.5112°N, 14.5013°E)
Time: 11:20:15
(UTC+02:00)

PCSat - Pass Details

Date: 30 March 2023
Orbit: 783 x 794 km, 67.1° (Epoch: 29 May)

Event Time Altitude Azimuth Distance (km) Brightness Sun altitude
Rises 22:42:32 0° 325° (NW) 3,299 14.0 -28.9°
Reaches altitude 10° 22:45:53 10° 346° (NNW) 2,369 12.8 -29.3°
Maximum altitude 22:49:19 17° 26° (NNE) 1,941 11.8 -29.7°
Enters shadow 22:50:44 15° 44° (NE) 2,019 11.7 -29.8°
